Regional Weather Roundup
Issued by NWS

Home | Current Version | Previous Version | Graphics & Text | Print | Product List | Glossary Off
Versions: 1 2 3 4 5 6 7 8 9 10 11 12 13 14 15 16 17 18 19 20 21 22 23 24 25 26 27 28 29 30 31 32 33 34 35 36 37 38 39 40 41 42 43 44 45 46 47 48 49 50

000
ASUS43 KMKX 181100
RWRWI

WISCONSIN REGIONAL WEATHER ROUNDUP
NATIONAL WEATHER SERVICE MILWAUKEE/SULLIVAN WI
500 AM CST THU DEC 18 2014

NOTE: "FAIR" INDICATES FEW OR NO CLOUDS BELOW 12,000 FEET WITH NO
SIGNIFICANT WEATHER AND/OR OBSTRUCTIONS TO VISIBILITY.

WIZ001-002-006>008-014>016-023>028-181200-
NORTHWEST WISCONSIN

CITY           SKY/WX    TMP DP  RH WIND       PRES   REMARKS
SUPERIOR ARPT  CLOUDY    20  18  92 CALM      30.33F
ASHLAND        CLOUDY    23  20  88 CALM      30.32S
HAYWARD        CLOUDY    20  16  84 CALM      30.28F
SIREN          CLOUDY    18  15  87 CALM      30.31F
CUMBERLAND     CLOUDY    19  18  93 CALM      30.28S
RICE LAKE      CLOUDY    22  18  85 N3        30.30S
CHETEK         CLOUDY    21  17  84 CALM      30.29F
LADYSMITH      CLOUDY    23  19  87 CALM      30.29F
EAU CLAIRE     CLOUDY    21  17  84 CALM      30.30S
MENOMONIE      CLOUDY    22  18  85 CALM      30.31S
NEW RICHMOND   CLOUDY    20  18  93 CALM      30.31S
OSCEOLA        CLOUDY    19  16  90 CALM      30.34F
$$

WIZ003>005-009-010-017-018-181200-
NORTH CENTRAL WISCONSIN

CITY           SKY/WX    TMP DP  RH WIND       PRES   REMARKS
MANITOWISH WTR CLOUDY    19  17  90 N6        30.24F WCI  11
ARBOR VITAE    CLOUDY    22  19  87 NE3       30.24S
WOODRUFF       CLOUDY    22  19  87 NE3       30.24S
RHINELANDER    CLOUDY    20  17  88 NE5       30.23S WCI  13
EAGLE RIVER    CLOUDY    20  18  93 NE9       30.23F WCI   9
LAND O LAKES   CLOUDY    21  18  90 NE3       30.25S
PHILLIPS       CLOUDY    21  19  90 N6        30.24F WCI  13
TOMAHAWK       CLOUDY    22  18  85 CALM      30.24F
MEDFORD        CLOUDY    21  18  89 NE6       30.24S WCI  13
MERRILL        CLOUDY    23  19  86 NE3       30.25R
$$

WIZ029-030-035-036-043>047-181200-
CENTRAL WISCONSIN

CITY           SKY/WX    TMP DP  RH WIND       PRES   REMARKS
WAUSAU         CLOUDY    23  19  85 N6        30.24R WCI  16
MOSINEE        CLOUDY    23  23 100 N5        30.26R WCI  17
MARSHFIELD     CLOUDY    22  18  85 NW7       30.25S WCI  13
STEVENS POINT  CLOUDY    23  19  83 NE3       30.26R
WAUPACA        CLOUDY    26  20  79 CALM      30.26S
WAUTOMA        CLOUDY    23  19  86 NW3       30.28R
WISC RAPIDS    CLOUDY    22  16  78 W3        30.28S
CAMP DOUGLAS   NOT AVBL
$$

WIZ011>013-019>022-031-037>040-048>050-181200-
NORTHEAST WISCONSIN

CITY           SKY/WX    TMP DP  RH WIND       PRES   REMARKS
ANTIGO         CLOUDY    22  19  90 N9        30.22S WCI  11
SHAWANO        CLOUDY    28  23  81 N7        30.26S WCI  21
OCONTO         CLOUDY    27  22  82 N6        30.26S WCI  20
STURGEON BAY   CLOUDY    27  19  74 N13       30.25S WCI  16
GREEN BAY      CLOUDY    27  22  81 N6        30.26R WCI  20
MANITOWOC      NOT AVBL
APPLETON       NOT AVBL
CLINTONVILLE   CLOUDY    28  21  74 N6        30.26R WCI  22
OSHKOSH        CLOUDY    24  19  81 W7        30.26R WCI  16
$$

WIZ032>034-041-042-053>061-181200-
SOUTHWEST WISCONSIN

CITY           SKY/WX    TMP DP  RH WIND       PRES   REMARKS
LA CROSSE      CLOUDY    21  14  74 N5        30.30F WCI  15
SPARTA         CLOUDY    21  15  78 N3        30.30F
VIROQUA        CLOUDY    16  15  94 CALM      30.24F
BOSCOBEL       CLEAR     12   8  84 CALM      30.29F
PRAIRIE DU CHI CLEAR     15  12  87 CALM      30.29F
PLATTEVILLE    FAIR      16  13  90 CALM      30.26F
$$

WIZ056-057-062-063-064-067-068-181200-
SOUTH CENTRAL WISCONSIN

CITY           SKY/WX    TMP DP  RH WIND       PRES   REMARKS
REEDSBURG      CLOUDY    21  16  81 N3        30.26F
BARABOO/DELLS  CLOUDY    21  16  79 CALM      30.26F
LONE ROCK      NOT AVBL
MINERAL POINT  CLEAR     18  14  86 CALM      30.24F
MADISON        PTCLDY    16  13  88 CALM      30.26S
MIDDLETON      PTCLDY    18  13  84 W5        30.27R WCI  11
WATERTOWN      CLOUDY    21  18  88 N6        30.26S WCI  13
MONROE         CLEAR     18  14  86 NW5       30.24F WCI  11
JANESVILLE     CLEAR     19  16  86 CALM      30.27S
$$

WIZ051-052-058>065-066-070>072-181200-
SOUTHEAST WISCONSIN

CITY           SKY/WX    TMP DP  RH WIND       PRES   REMARKS
MILWAUKEE      CLEAR     20  14  77 NW7       30.25F WCI  11
WAUKESHA       MOCLDY    18  14  86 NW5       30.25F WCI  11
MILWAUKEE/TIMM CLOUDY    19  16  86 W3        30.27R
RACINE         CLEAR     18  13  80 NW5       30.27F WCI  11
BURLINGTON     CLEAR     15  12  89 W3        30.26S
KENOSHA        PTCLDY    16  13  88 W6        30.26S WCI   7
FOND DU LAC    CLOUDY    24  18  77 W5        30.26R WCI  18
SHEBOYGAN      CLOUDY    25  19  78 NW7       30.25R WCI  17
WEST BEND      CLOUDY    23  19  86 NW6       30.25R WCI  16
JUNEAU         CLOUDY    22  17  83 W3        30.27R
$$

LSZ147-162-181200-
LAKE SUPERIOR

STATION/POSITION TIME  TEMP    WIND        PRES    WAVE
                       AIR SEA DIR/SP/G            HT/PER
                 (UTC) (F)     (DEG/KT/KT) (MB)    (FT/S)
DEVILS ISLAND    1000   27      80/  6/  7 1028.1F
PORT WING        1000   26     350/  3/  9 1027.1F
SAXON HARBOR     1000   26      CALM  /  6 1026.4
$$

LMZ867-665-643>646-181200-
LAKE MICHIGAN

STATION/POSITION TIME  TEMP    WIND        PRES    WAVE
                       AIR SEA DIR/SP/G            HT/PER
                 (UTC) (F)     (DEG/KT/KT) (MB)    (FT/S)
CHAMBERS ISLAND  1000   28     330/ 14/ 18 1024.4F
NORTHPORT PIER   1000   28     350/ 16/ 19 1024.0S
SISTER BAY       0913          360/ 14/ 18   N/A
ALGOMA LAKESHORE 1014           10/  8/ 11   N/A
KEWAUNEE LAKESHO 1000   28     350/  6/ 10 1022.9F
SHEBOYGAN LAKESH 1000   25 34  270/  8/ 10 1025.4F
PORT WASHINGTON  1000   25     280/  5/  8 1025.1F
MILWAUKEE LAKESH 1000   21     300/  9/ 11   N/A
KENOSHA   LAKESH 1000   19     290/  6/  8 1024.7S
$$

TC  - TEMPERATURE IN CELSIUS
VSB - VISIBILITY IN STATUTE MILES
WCI - WIND CHILL INDEX
HX  - HEAT INDEX




USA.gov is the U.S. government's official web portal to all federal, state and local government web resources and services.